Terminal Aerodrome Forecast
Issued by NWS

Home | Current Version | Previous Version | Graphics & Text | Print | Product List | Glossary On
Versions: 1 2 3 4 5 6 7 8 9 10 11 12 13 14 15 16
684
FTUS43 KGRB 260530
TAFATW
TAF
KATW 260530Z 2606/2706 VRB02KT P6SM SKC
      TEMPO 2608/2612 4SM BR
     FM261500 24006KT P6SM FEW035
     FM270100 23003KT P6SM SCT100=

USA.gov is the U.S. government's official web portal to all federal, state and local government web resources and services.